Regional Weather Roundup
Issued by NWS Green Bay, WI

Home | Current Version | Previous Version | Text Only | Print | Product List | Glossary On
Versions: 1 2 3 4 5 6 7 8 9 10 11 12 13 14 15 16 17 18 19 20 21 22 23 24 25 26 27 28 29 30 31 32 33 34 35 36 37 38 39 40 41 42 43 44 45 46 47 48 49 50
000
ASUS43 KGRB 171311
RWRGRB

NORTH-CENTRAL AND NORTHEAST WISCONSIN REGIONAL WEATHER ROUNDUP
NATIONAL WEATHER SERVICE GREEN BAY WI
800 AM CDT TUE OCT 17 2017

WIZ005-009-010>012-018-019-171400-
NORTH CENTRAL WISCONSIN

CITY           SKY/WX    TMP DP  RH WIND       PRES   REMARKS
IRONWOOD       CLEAR     45  37  73 SW5       29.98R
MANITOWISH WTR CLEAR     33  33 100 CALM      29.99R
ARBOR VITAE    CLEAR     37  35  96 CALM      30.00R
EAGLE RIVER    CLOUDY    33  33 100 CALM      29.99R
LAND O LAKES   CLOUDY    32  32 100 CALM      30.00R
RHINELANDER    CLOUDY    39  37  92 W6        30.01R
PHILLIPS       CLOUDY    35  35 100 CALM      30.00S
ANTIGO         CLOUDY    38  35  90 CALM      30.02R
TOMAHAWK       CLOUDY    32  31  96 CALM      30.02R
MERRILL        CLOUDY    32  32  99 CALM      30.02R
$$

WIZ013-073-171400-
NORTHEAST WISCONSIN

CITY           SKY/WX    TMP DP  RH WIND       PRES   REMARKS
IRON MOUNTAIN  CLOUDY    47  36  65 NW3       29.97R
MARINETTE      CLOUDY    47  39  74 W6        30.00R
OCONTO         PTCLDY    47  39  74 W5        30.01R
$$

WIZ017-030-035>037-045-171400-
CENTRAL WISCONSIN

CITY           SKY/WX    TMP DP  RH WIND       PRES   REMARKS
MEDFORD        CLOUDY    39  35  86 CALM      30.01S
WAUSAU         CLOUDY    43  38  82 CALM      30.02R
MOSINEE        PTCLDY    39  37  93 CALM      30.04R
MARSHFIELD     CLEAR     45  37  73 W3        30.02R
WISC RAPIDS    CLEAR     47  41  80 SW6       30.05R
STEVENS POINT  CLEAR     35  35 100 CALM      30.04R
WAUPACA        CLEAR     46  40  79 CALM      30.04R
SHAWANO        CLOUDY    45  39  79 CALM      30.02R
CLINTONVILLE   NOT AVBL
WAUTOMA        CLEAR     37  36  96 CALM      30.06R
$$

WIZ038-039-048-051-171400-
FOX VALLEY

CITY           SKY/WX    TMP DP  RH WIND       PRES   REMARKS
NWS GREEN BAY  CLEAR     48  42  80 SW5       30.03R
APPLETON       PTCLDY    48  37  66 SW12      30.02R
OSHKOSH        CLEAR     48  40  73 SW9       30.05R
FOND DU LAC    CLEAR     49  38  65 SW10      30.06S
$$

WIZ022-050-052-171400-
EAST CENTRAL WISCONSIN

CITY           SKY/WX    TMP DP  RH WIND       PRES   REMARKS
EPHRAIM        FAIR      51  41  66 W12G20    29.98R
WASHINGTON ISL FAIR      52  42  69 W13G18    29.97R
STURGEON BAY   CLOUDY    52  41  66 SW12      30.01R
MANITOWOC      CLEAR     54  40  59 W14G21    30.03R
SHEBOYGAN      CLEAR     53  41  63 SW12G21   30.05S
$$

LMZ563-521-522-541>543-171400-
LAKESHORE

STATION/POSITION TIME  TEMP    WIND        PRES    VSBY  WAVE
                       AIR SEA DIR/SP/G                  HT/PER
                 (UTC) (F)     (DEG/KT/KT) (MB)    (MI)  (FT/S)
SHEBOYGAN LKSHOR 1200   54     250/ 16/ 19 1017.0R
KEWAUNEE LKSHORE 1242   53     260/ 12/ 16 1015.3R
NORTHPORT PIER   1240   54     240/  5/ 14 1014.6R
N MID LAKE BUOY  1250   56 60  250/ 21/ 25 1014.9R         6/ 6
S GREEN BAY BUOY 1300   54 58  220/ 17/ 21 1015.7
SISTER BAY LKSHO 1204   54     220/ 17/ 19   N/A
MENOMINEE LKSHOR 1236   49     240/ 11/ 14 1015.2R
$$




USA.gov is the U.S. government's official web portal to all federal, state and local government web resources and services.